EW2642 Weather Reports


Display with metric or nautical units.
time (UTC)temp
F
wind
direction
speed
MPH
gust
MPH
rain 1hr
in
rain 24hr
in
rain mn
in
humidity
%
barometer
mb
20260906014529 77 214 1.0 4.0 0.00 0.00 0.00 47 851.6
20260906013035 77 178 3.0 6.0 0.00 0.00 0.00 46 851.6
20260906011527 78 189 4.0 7.0 0.00 0.00 0.00 45 851.7
20260906010030 78 202 7.0 11.0 0.00 0.00 0.00 44 851.8
20260906004526 79 184 10.0 15.0 0.00 0.00 0.00 45 851.8
20260906003028 80 143 10.0 22.0 0.00 0.00 0.00 44 851.8
20260906001529 81 178 10.0 19.0 0.00 0.00 0.00 42 851.6
20260906000030 80 219 6.0 16.0 0.00 0.00 0.00 42 851.8
20260905234527 80 191 8.0 15.0 0.00 0.00 0.00 41 851.7
20260905233035 80 186 6.0 13.0 0.00 0.00 0.00 40 851.7
20260905231530 80 161 7.0 14.0 0.00 0.00 0.00 41 851.7
20260905230009 79 160 8.0 15.0 0.00 0.00 0.00 43 851.8
20260905224510 79 167 12.0 20.0 0.00 0.00 0.00 46 851.9
20260905223013 80 171 13.0 22.0 0.00 0.00 0.00 44 851.8
20260905221512 82 222 8.0 17.0 0.00 0.00 0.00 39 851.8
20260905220010 82 198 8.0 15.0 0.00 0.00 0.00 38 851.8
20260905214510 83 180 12.0 21.0 0.00 0.00 0.00 36 851.8
20260905213014 84 215 7.0 13.0 0.00 0.00 0.00 35 851.9
20260905211510 84 252 8.0 14.0 0.00 0.00 0.00 34 852.1
20260905210013 85 260 7.0 16.0 0.00 0.00 0.00 32 852.1
20260905204512 86 179 8.0 18.0 0.00 0.00 0.00 31 852.2
20260905203011 85 173 9.0 15.0 0.00 0.00 0.00 32 852.3
20260905201512 84 219 9.0 15.0 0.00 0.00 0.00 31 852.4
20260905200010 84 204 7.0 14.0 0.00 0.00 0.00 30 852.5
20260905194513 85 229 10.0 14.0 0.00 0.00 0.00 29 852.6
20260905193011 85 170 6.0 17.0 0.00 0.00 0.00 29 852.7
20260905191510 85 197 4.0 12.0 0.00 0.00 0.00 29 852.7
20260905190018 85 275 7.0 14.0 0.00 0.00 0.00 28 852.9
20260905184513 86 225 6.0 18.0 0.00 0.00 0.00 27 853.0
20260905183014 85 145 7.0 11.0 0.00 0.00 0.00 31 853.1
20260905181519 84 115 8.0 13.0 0.00 0.00 0.00 31 853.1
20260905180013 83 118 4.0 14.0 0.00 0.00 0.00 35 853.2
20260905174536 83 132 9.0 16.0 0.00 0.00 0.00 35 853.2
20260905173037 82 85 5.0 12.0 0.00 0.00 0.00 36 853.3
20260905171538 81 138 7.0 13.0 0.00 0.00 0.00 35 853.4
20260905170036 80 135 6.0 15.0 0.00 0.00 0.00 38 853.4
20260905164542 79 108 7.0 14.0 0.00 0.00 0.00 40 853.3
20260905163039 79 142 10.0 13.0 0.00 0.00 0.00 40 853.2
20260905161534 78 114 10.0 14.0 0.00 0.00 0.00 42 853.2
20260905160033 77 118 9.0 15.0 0.00 0.00 0.00 44 853.2
20260905154539 76 134 9.0 12.0 0.00 0.00 0.00 45 853.1
20260905153033 74 141 6.0 10.0 0.00 0.00 0.00 46 853.2
20260905151536 72 121 6.0 9.0 0.00 0.00 0.00 47 853.1
20260905150041 70 111 4.0 6.0 0.00 0.00 0.00 49 853.1
20260905144537 67 119 1.0 4.0 0.00 0.00 0.00 54 853.2
20260905143035 63 123 1.0 2.0 0.00 0.00 0.00 60 853.3
20260905141535 60 268 0.0 3.0 0.00 0.00 0.00 66 853.2
20260905140014 58 153 1.0 3.0 0.00 0.00 0.00 68 853.0
20260905134515 56 142 2.0 5.0 0.00 0.00 0.00 70 852.8
20260905133015 55 147 3.0 6.0 0.00 0.00 0.00 70 852.6
20260905131538 55 157 5.0 7.0 0.00 0.00 0.00 69 852.4
20260905130034 55 159 3.0 5.0 0.00 0.00 0.00 67 852.4
20260905124516 56 155 2.0 5.0 0.00 0.00 0.00 66 852.3
20260905123014 56 163 2.0 4.0 0.00 0.00 0.00 65 852.1
20260905121514 59 136 2.0 3.0 0.00 0.00 0.00 60 852.0
20260905120021 61 215 1.0 4.0 0.00 0.00 0.00 56 851.8
20260905114518 61 188 2.0 4.0 0.00 0.00 0.00 56 851.8
20260905113014 61 209 3.0 5.0 0.00 0.00 0.00 55 851.8
20260905111519 61 219 2.0 4.0 0.00 0.00 0.00 55 851.8
20260905110014 61 214 2.0 4.0 0.00 0.00 0.00 56 851.9
20260905104518 60 218 2.0 4.0 0.00 0.00 0.00 56 851.8
20260905103013 59 229 2.0 4.0 0.00 0.00 0.00 57 851.7
20260905101514 59 216 3.0 4.0 0.00 0.00 0.00 59 851.7
20260905100015 60 191 1.0 3.0 0.00 0.00 0.00 57 851.7
20260905094514 60 193 1.0 2.0 0.00 0.00 0.00 55 851.8
20260905093014 61 186 1.0 3.0 0.00 0.00 0.00 54 851.8
20260905091514 61 175 2.0 5.0 0.00 0.00 0.00 55 851.8
20260905090016 62 154 1.0 3.0 0.00 0.00 0.00 58 851.8
20260905084514 63 127 2.0 4.0 0.00 0.00 0.00 54 851.9
20260905083011 63 158 1.0 2.0 0.00 0.00 0.00 53 851.9
20260905081514 64 126 0.0 4.0 0.00 0.00 0.00 53 852.1
20260905080034 65 186 1.0 3.0 0.00 0.00 0.00 51 852.1
20260905074537 66 196 1.0 5.0 0.00 0.00 0.00 51 852.0
20260905073016 66 181 3.0 6.0 0.00 0.00 0.00 52 852.0
20260905071513 66 178 3.0 8.0 0.00 0.00 0.00 50 852.0
20260905070016 66 179 2.0 6.0 0.00 0.00 0.00 50 852.0
20260905064514 69 183 0.0 6.0 0.00 0.00 0.00 46 851.8
20260905063016 70 211 2.0 7.0 0.00 0.00 0.00 44 851.8
20260905061517 71 211 3.0 9.0 0.00 0.00 0.00 45 851.7
20260905060014 72 177 5.0 9.0 0.00 0.00 0.00 44 851.7
20260905054521 72 176 3.0 7.0 0.00 0.00 0.00 46 851.7
20260905053016 71 171 5.0 9.0 0.00 0.00 0.00 48 851.7
20260905051528 70 192 6.0 10.0 0.00 0.00 0.00 52 851.6
20260905050016 68 223 4.0 8.0 0.00 0.00 0.00 57 851.5
20260905044513 67 167 5.0 8.0 0.00 0.00 0.00 57 851.5
20260905043019 67 163 3.0 5.0 0.00 0.00 0.00 57 851.4
20260905041516 68 163 2.0 6.0 0.00 0.00 0.00 56 851.3
20260905040018 68 175 3.0 6.0 0.00 0.00 0.00 53 851.2
20260905034516 70 169 3.0 5.0 0.00 0.00 0.00 51 851.3
20260905033014 71 179 4.0 7.0 0.00 0.00 0.00 49 851.2
20260905031518 71 167 3.0 7.0 0.00 0.00 0.00 48 851.1
20260905030014 72 176 3.0 6.0 0.00 0.00 0.00 46 850.9
20260905024523 73 186 5.0 9.0 0.00 0.00 0.00 45 850.8
20260905023021 74 184 3.0 7.0 0.00 0.00 0.00 43 850.7
20260905021514 75 230 3.0 9.0 0.00 0.00 0.00 42 850.6
20260905020014 77 191 5.0 7.0 0.00 0.00 0.00 42 850.5